Location: Ago
(8.4667°N, 4.4833°E)
Time: 22:57:40
(UTC+00:00)

CZ-2C R/B - Pass Details

Date: 18 September 2020
Orbit: 704 x 907 km, 98.1° (Epoch: 20 October)

Event Time Altitude Azimuth Distance (km) Brightness Sun altitude
Rises 19:26:31 0° 183° (S) 3,125 6.1 -27.1°
Reaches altitude 10° 19:28:51 10° 190° (S) 2,223 5.4 -27.6°
Maximum altitude 19:33:25 41° 259° (W) 1,082 4.1 -28.8°
Drops below altitude 10° 19:38:12 10° 329° (NNW) 2,327 5.9 -29.9°
Sets 19:40:42 0° 336° (NNW) 3,288 6.7 -30.6°
